Theta_e
306 303 306 307 307 307 306 306 306 307 308 309 310 313 311 312 311 312 316 320 320 318 311 310 316 317 318 322 324 320 317 316 319 318 319 322 319 319 322 320 318 319 320 320 317
301 305 306 307 307 305 306 306 307 307 308 308 311 313 310 313 310 313 315 319 320 318 312 316 316 316 318 323 323 316 316 319 316 317 317 319 318 318 317 316 315 317 318 317 317
301 305 306 307 306 308 308 308 307 307 308 307 310 311 310 311 312 314 315 316 319 319 313 316 315 316 322 323 321 318 317 315 315 318 320 318 317 318 315 315 315 315 316 316 313
302 301 304 306 308 308 308 308 310 308 308 307 308 310 309 311 313 314 314 316 317 315 313 314 314 317 318 319 321 316 313 314 313 316 318 317 317 315 315 315 317 317 317 314 313
304 305 304 306 306 306 308 310 308 308 309 309 309 310 308 310 312 312 314 317 316 316 314 314 313 316 317 317 317 314 312 313 312 314 315 317 313 312 312 317 316 315 314 313 313
304 304 304 306 307 308 309 309 309 308 309 309 309 310 309 311 312 311 314 315 316 316 314 313 313 316 317 316 316 313 312 312 312 312 312 312 311 313 311 314 314 314 313 313 314
304 303 304 306 307 308 308 308 310 308 309 309 310 310 310 311 311 311 312 314 316 316 313 313 313 315 316 314 313 311 310 310 310 312 310 313 313 311 311 313 313 313 313 313 314
304 303 303 306 307 308 307 308 309 308 308 308 309 309 309 310 310 310 311 314 316 315 312 313 314 314 315 313 312 312 310 311 310 311 309 312 317 309 311 311 311 311 312 313 314
304 305 305 305 307 306 307 307 308 308 310 310 310 310 309 308 309 310 311 312 313 314 312 313 314 313 313 310 309 311 309 311 310 311 309 311 310 308 309 310 310 311 312 312 313
305 305 306 306 306 307 307 308 308 308 309 308 309 309 308 309 309 310 310 311 314 312 312 312 311 309 309 309 311 311 312 311 309 309 310 309 310 307 309 309 309 310 311 312 312
305 305 305 305 307 306 306 309 308 307 306 308 308 306 309 309 309 309 310 310 311 311 310 311 309 309 309 311 312 311 312 312 312 311 310 309 310 308 309 308 308 308 309 310 310
306 306 306 306 306 306 306 307 307 307 305 307 308 308 309 309 308 308 310 310 311 312 311 310 309 310 311 311 312 312 311 312 312 311 312 310 310 310 308 308 309 309 309 309 310
306 306 306 306 306 306 306 306 307 308 305 305 306 306 309 309 309 309 310 310 311 313 313 310 310 310 311 311 311 312 312 311 311 311 311 310 309 310 311 310 310 310 310 310 310
308 307 306 306 307 306 308 305 305 308 307 307 307 307 309 309 309 310 310 311 311 313 309 308 309 310 311 313 312 312 311 313 312 310 309 309 309 311 309 310 309 310 311 311 311
308 308 308 308 307 306 305 305 305 306 309 307 308 308 309 309 308 309 310 310 312 312 307 309 311 312 312 312 312 312 312 312 311 311 308 310 305 305 310 312 311 310 311 312 312
308 308 308 307 308 306 305 305 306 304 309 310 310 311 310 310 310 310 310 310 311 311 311 311 311 311 311 311 311 311 311 313 312 309 308 312 307 308 311 312 314 312 313 313 314
308 308 309 307 307 306 305 308 305 306 308 311 312 310 310 310 311 311 311 311 312 309 309 312 312 311 312 310 311 310 309 304 304 303 306 312 308 307 312 313 312 312 315 315 315
308 310 309 307 306 306 309 305 309 311 313 310 311 311 311 310 310 311 311 311 310 311 310 307 303 311 311 311 310 312 313 305 306 308 309 309 308 308 312 312 313 314 315 315 314
309 311 310 309 308 309 309 308 310 311 312 312 312 311 311 311 312 311 311 311 311 310 312 312 309 311 311 311 310 311 311 311 309 310 308 306 311 312 312 311 311 314 314 315 314
310 313 310 309 311 312 306 309 310 310 310 311 313 313 311 311 311 310 311 311 312 311 311 311 313 312 312 312 311 311 310 307 306 310 314 310 314 309 313 311 312 311 312 312 311
312 313 309 309 313 311 304 308 310 310 310 311 312 311 310 311 312 310 311 311 312 312 310 311 312 313 312 312 310 310 311 311 310 311 313 315 312 311 312 312 309 311 312 311 311
314 310 309 311 310 310 304 311 311 311 311 311 311 311 311 311 311 312 313 312 312 312 313 310 311 311 313 311 311 312 313 308 309 313 309 309 310 310 309 310 310 309 309 308 308
312 312 311 313 306 304 310 311 311 311 311 312 312 311 311 311 312 312 311 312 312 311 312 311 310 307 309 309 309 311 311 312 309 308 310 308 309 308 310 310 309 308 308 307 307
312 308 314 311 311 308 311 311 311 310 310 310 311 311 311 312 311 312 312 312 312 310 310 310 309 308 305 307 309 311 311 311 309 305 309 310 307 310 310 307 307 307 306 306 306
310 307 308 308 308 308 309 311 311 311 310 310 310 309 309 312 312 312 312 312 312 311 311 308 309 305 308 309 310 311 311 310 310 310 309 310 309 308 306 305 306 306 306 306 306
310 309 309 308 308 308 307 309 309 309 308 308 309 308 307 308 309 312 312 311 312 311 310 306 307 305 304 306 306 307 307 310 310 311 310 310 310 306 306 306 306 306 305 305 304
306 309 308 307 307 305 306 308 309 308 308 308 307 307 307 307 308 308 309 308 307 309 308 307 304 303 307 305 305 303 303 305 309 310 309 310 308 306 304 305 304 305 304 303 303
Wind_Speed
17 16 16 17 17 17 17 16 15 12 13 12 15 18 21 17 15 17 18 13 15 8 7 10 17 15 13 13 7 1 3 2 2 8 6 12 6 9 10 14 10 5 13 6 24
16 15 16 17 18 18 21 20 17 14 15 13 14 17 17 14 15 17 17 19 12 14 12 13 14 14 7 6 5 3 3 1 2 2 7 11 13 11 8 15 10 19 16 20 22
14 15 16 17 17 20 23 21 15 12 11 11 15 13 20 15 13 11 15 15 11 15 17 13 12 12 5 11 6 4 1 6 7 9 22 10 10 6 21 2 12 24 24 21 21
13 15 16 15 18 21 23 18 14 4 5 8 13 14 19 13 6 9 16 9 11 14 19 16 14 10 3 5 7 5 6 5 9 6 16 8 14 8 3 2 13 19 20 21 19
13 15 14 14 17 20 24 19 9 2 3 7 13 15 15 9 2 2 16 10 15 13 19 13 12 15 4 5 8 4 1 7 8 17 15 19 12 8 8 11 19 19 19 19 17
13 13 14 13 15 19 23 29 5 4 5 8 11 13 14 8 3 3 13 13 13 16 17 14 8 19 6 8 6 8 11 6 8 11 12 9 5 6 8 21 21 19 19 18 17
11 11 12 12 14 16 18 29 12 4 7 8 9 10 6 5 3 8 10 9 13 18 18 17 11 9 1 5 12 17 6 6 8 6 4 7 4 2 17 20 21 18 17 17 15
13 13 13 11 10 12 12 20 18 7 4 7 7 8 5 6 3 7 10 10 11 11 14 16 10 9 6 14 6 5 5 5 3 3 2 3 3 4 18 19 17 17 16 17 13
11 12 11 8 8 9 12 17 15 14 9 10 10 7 4 5 3 3 13 11 10 12 14 5 6 5 9 6 4 1 4 5 2 1 2 1 1 6 15 15 15 16 17 16 16
9 12 16 15 6 6 10 14 10 9 15 2 6 6 4 3 4 3 7 12 16 14 13 6 4 4 3 4 6 4 6 5 6 5 3 3 1 6 16 16 15 17 18 19 19
5 8 12 14 15 9 7 2 4 6 23 10 8 9 8 10 8 3 8 16 25 18 4 2 6 6 6 5 6 7 6 8 3 2 3 6 4 8 16 15 15 17 22 24 20
1 2 7 13 12 9 8 9 14 5 6 20 15 10 12 6 6 8 16 5 11 10 3 5 4 4 7 7 4 3 10 4 3 3 2 6 8 6 13 14 23 23 21 25 23
5 9 11 13 10 12 11 8 10 7 6 9 12 7 5 9 5 8 7 14 13 7 5 5 3 2 4 5 3 3 8 6 6 4 1 2 6 5 7 21 22 20 19 17 16
9 10 12 12 6 7 4 6 3 4 3 7 6 5 7 6 5 7 10 6 5 9 5 4 1 2 5 4 2 5 2 7 11 4 4 3 3 5 5 5 8 20 18 12 7
10 11 11 10 5 3 5 6 4 4 4 9 5 7 5 4 8 4 10 2 6 3 6 4 2 5 7 1 1 4 5 7 4 3 5 2 4 7 2 2 2 5 12 12 9
9 10 10 7 2 1 3 0 5 5 6 5 6 2 4 10 3 6 4 9 20 7 9 3 3 4 2 4 1 6 7 8 5 4 3 2 5 5 2 4 2 4 5 7 7
8 9 9 6 2 2 1 5 4 5 1 6 6 6 9 7 5 6 9 5 2 5 4 6 6 4 4 6 8 7 6 3 4 3 5 4 3 6 1 2 6 9 9 5 3
7 8 9 7 2 2 3 3 9 4 4 1 2 7 6 7 4 2 1 5 7 6 3 4 4 5 7 2 5 3 5 5 6 4 4 4 5 4 4 7 10 10 7 3 1
5 6 10 9 5 1 2 6 5 3 3 1 2 1 3 2 2 3 5 3 2 3 4 5 2 2 4 3 2 2 1 3 6 4 4 3 3 4 2 4 8 7 5 2 0
3 3 8 6 4 2 4 5 4 2 2 5 1 3 1 2 3 2 3 2 3 1 1 4 5 1 2 2 4 2 3 3 3 3 2 4 3 4 1 4 5 5 6 3 2
4 5 9 5 4 6 4 2 3 2 1 1 3 4 3 1 3 3 2 4 3 2 5 3 4 2 2 1 4 2 1 2 4 4 4 3 5 4 6 6 7 6 3 3 4
3 2 10 5 4 4 2 2 2 2 0 0 1 4 2 3 4 4 3 2 7 6 2 3 4 3 1 1 1 1 2 4 4 3 1 3 4 2 8 11 8 6 5 5 6
3 3 6 6 3 2 2 2 2 2 2 3 2 2 3 2 3 3 3 2 5 3 1 2 2 3 6 5 4 2 3 2 4 3 3 5 4 4 7 3 4 7 5 5 6
2 3 3 3 3 5 3 2 3 1 2 2 1 2 1 2 2 4 2 1 1 2 1 0 3 4 6 4 4 4 4 4 5 3 3 4 5 5 5 4 4 4 5 7 8
3 0 1 2 4 2 2 1 2 2 0 0 1 3 2 2 2 3 3 2 1 1 2 3 3 3 2 3 2 1 4 7 6 4 5 3 3 5 7 7 6 6 5 9 6
3 3 1 1 1 3 3 1 2 1 3 0 3 4 5 4 1 2 4 2 2 1 0 2 1 2 1 1 1 2 5 6 7 5 5 3 4 5 9 10 4 2 6 9 1
4 3 2 0 1 2 2 1 2 5 3 4 2 3 4 2 5 6 10 9 6 5 2 2 4 2 2 1 2 6 9 10 6 5 7 7 6 7 4 4 5 7 3 2 8
Wind_Direction
340 342 342 343 344 335 329 318 304 300 291 254 228 222 210 217 214 205 210 209 208 185 205 181 177 158 171 182 216 214 81 196 176 158 177 156 105 83 122 113 78 91 159 167 166
340 347 348 346 339 337 330 316 302 281 286 250 224 218 210 211 205 200 199 207 198 188 172 168 172 165 174 173 176 100 119 315 286 266 158 139 107 120 110 104 81 97 121 143 162
351 349 349 348 350 342 344 335 310 272 266 235 218 206 206 205 185 200 205 208 203 202 168 171 165 177 190 162 158 174 108 293 348 16 137 121 112 96 127 122 172 152 148 155 161
356 355 353 347 347 346 344 347 352 274 244 214 189 185 180 197 171 195 191 200 202 186 173 178 194 194 177 144 180 135 47 32 360 4 126 111 128 84 76 165 180 168 160 159 161
356 359 356 352 355 355 350 344 337 213 165 162 163 169 165 197 148 127 186 190 199 199 178 182 194 196 169 174 141 94 82 53 33 68 89 129 79 121 78 130 150 154 156 157 162
4 2 360 354 4 12 11 5 321 168 160 152 158 175 175 179 140 88 177 192 181 199 187 188 185 190 184 163 148 131 100 71 42 60 57 94 77 114 127 138 143 152 157 165 172
8 3 360 360 8 29 37 31 21 107 159 153 173 179 166 163 185 161 156 172 184 189 189 177 209 216 48 122 134 134 93 54 21 16 60 88 26 124 155 150 148 157 162 170 183
8 11 14 3 356 23 26 38 46 83 139 168 144 155 71 114 143 151 163 168 186 185 199 190 204 279 250 129 86 90 74 106 314 10 34 58 223 176 170 173 167 171 175 181 193
19 24 18 10 354 2 57 37 25 57 103 125 103 111 95 136 109 171 171 144 172 181 211 196 218 163 138 98 47 356 151 113 117 44 115 63 196 160 177 179 182 188 191 192 199
38 58 49 35 1 344 329 349 23 95 83 137 63 99 78 88 135 160 156 167 152 155 206 222 196 90 77 99 180 167 109 94 143 214 106 161 149 174 186 190 196 202 201 209 216
62 64 44 36 38 15 341 11 61 47 53 34 94 103 83 98 106 119 152 151 150 157 217 222 96 170 194 157 156 148 119 111 101 171 121 200 193 208 199 202 207 216 215 216 229
354 33 32 12 14 23 17 77 71 116 56 62 76 56 58 88 100 116 146 97 149 163 237 41 157 201 193 210 194 142 118 83 70 152 127 190 246 228 194 212 213 213 219 222 225
328 290 312 335 348 1 33 62 85 74 77 20 27 11 13 90 95 147 149 125 137 139 228 124 211 179 141 176 160 126 146 164 147 139 345 160 304 234 234 217 220 224 227 226 236
335 328 318 317 316 346 340 32 156 135 79 10 352 14 31 87 44 139 126 131 158 180 137 118 201 141 111 98 99 96 256 132 131 104 167 126 251 290 238 225 199 221 218 214 217
328 337 338 336 307 314 328 355 149 151 61 334 349 354 80 86 151 155 142 131 183 215 105 267 53 107 69 327 327 144 137 127 128 99 97 314 76 274 62 139 168 175 192 198 222
328 335 341 334 275 26 303 118 136 44 30 5 315 48 71 61 79 103 158 195 122 84 73 73 21 62 89 33 345 143 91 50 55 69 48 248 129 290 244 177 132 56 140 170 194
336 348 345 342 315 275 210 157 48 64 316 346 29 70 79 70 64 100 79 58 137 84 31 22 31 358 29 57 2 50 59 31 24 16 206 304 65 234 92 73 137 123 129 151 211
342 20 21 8 5 186 150 64 69 342 59 207 177 146 120 164 183 298 171 66 24 84 89 109 354 2 332 68 170 74 136 149 164 169 216 358 226 262 157 119 125 115 122 141 182
337 21 27 26 20 46 131 50 140 167 114 119 348 89 168 180 154 80 80 101 73 35 122 132 2 305 2 15 75 181 37 170 108 45 79 217 267 351 76 102 125 124 128 134 102
334 342 10 10 41 11 73 106 110 113 134 185 182 212 86 108 182 144 56 341 140 85 76 162 98 0 282 353 37 118 155 64 3 125 190 296 193 224 167 162 133 106 115 109 58
12 343 360 0 67 58 94 93 123 165 299 51 28 108 111 73 295 87 22 346 6 43 30 130 87 307 54 293 186 93 17 59 118 127 154 147 259 218 179 156 140 148 100 28 356
22 21 352 2 54 71 63 90 16 136 0 342 23 63 95 21 37 70 124 352 17 4 31 31 114 118 221 311 328 187 162 143 119 219 180 139 256 159 149 151 132 105 68 51 46
359 343 356 10 99 358 193 98 90 59 63 342 112 62 41 96 101 101 90 66 24 43 183 3 81 88 350 348 342 228 209 126 117 77 200 135 247 201 158 130 139 114 84 59 30
21 22 23 7 51 127 130 135 116 123 102 21 5 5 73 72 72 128 110 51 37 114 221 317 101 150 182 198 140 182 198 174 126 116 187 209 168 201 178 168 126 88 79 38 10
38 15 31 330 347 44 72 168 134 126 76 152 45 51 34 121 106 111 115 156 234 203 336 93 119 79 19 61 65 120 182 187 181 204 157 176 132 187 196 197 149 107 42 358 351
54 37 8 40 1 21 351 345 140 64 62 41 106 53 51 94 127 146 135 163 188 228 101 29 151 106 11 19 77 264 249 211 212 229 261 247 275 196 162 142 111 21 345 338 342
62 45 357 295 323 73 250 131 105 112 15 52 30 94 69 106 71 74 89 79 96 142 145 101 128 100 215 313 337 293 218 195 194 190 169 205 215 162 98 86 19 329 335 62 339